Probability
0 0 0 0 0 0 0 0 0 0 0 0 0 0 0 0 0 0 0 0 0 0 0 0 0 0 0 0 0 0 0 0 0 0 0 0 0 0
0 0 0 0 0 0 0 0 0 0 0 0 0 0 0 0 0 0 0 0 0 0 0 0 0 0 0 0 0 0 0 0 0 0 0 0 0 0
0 0 0 0 0 0 0 0 0 0 0 0 0 0 0 0 0 0 0 0 0 0 0 0 0 0 0 0 0 0 0 0 0 0 0 0 0 0
0 0 0 0 0 0 0 0 0 0 0 0 0 0 0 0 0 0 0 0 0 0 0 0 0 0 0 0 0 0 0 0 0 0 0 0 0 0
0 0 0 0 0 0 0 0 0 0 0 0 0 0 0 0 0 0 0 0 0 0 0 0 0 0 0 0 0 0 0 0 0 0 0 0 0 0
0 0 0 0 0 0 0 0 0 0 0 0 0 0 0 0 0 0 0 0 0 0 0 0 0 0 0 0 0 0 0 0 0 0 0 0 0 0
0 0 0 0 0 0 0 0 0 0 0 0 0 0 0 0 0 0 0 0 0 0 0 0 0 0 0 0 0 0 0 0 0 0 0 0 0 0
0 0 0 0 0 0 0 0 0 0 0 0 0 0 0 0 0 0 0 0 0 0 0 0 0 0 0 0 0 0 0 0 0 0 0 0 0 0
0 0 0 0 0 0 0 0 0 0 0 0 0 0 0 0 0 0 0 0 0 0 0 0 0 0 0 0 0 0 0 0 0 0 0 0 0 0
0 0 0 0 0 0 0 0 0 0 0 0 0 0 0 0 0 0 0 0 0 0 0 0 0 0 0 0 0 0 0 0 0 0 0 0 0 0
0 0 0 0 0 0 0 0 0 0 0 0 0 0 0 0 0 0 0 0 0 0 0 0 0 0 0 0 0 0 0 0 0 0 0 0 0 0
0 0 0 0 0 0 0 0 0 0 0 0 0 0 0 0 0 0 0 0 0 0 0 0 0 0 0 0 0 0 0 0 0 0 0 0 0 0
0 0 0 0 0 0 0 0 0 0 0 0 0 0 0 0 0 0 0 0 0 0 0 0 0 0 0 0 0 0 0 0 0 0 0 0 0 0
0 0 0 0 0 0 0 0 0 0 0 0 0 0 0 0 0 0 0 0 0 0 0 0 0 0 0 0 0 0 0 0 0 0 0 0 0 0
0 0 0 0 0 0 0 0 0 0 0 0 0 0 0 0 0 0 0 0 0 0 0 0 0 0 0 0 0 0 0 0 0 0 0 0 0 0
0 0 0 0 0 0 0 0 0 0 0 0 0 0 0 0 0 0 0 0 0 0 0 0 0 0 0 0 0 0 0 0 0 0 0 0 0 0
0 0 0 0 0 0 0 0 0 0 0 0 0 0 0 0 0 0 0 0 0 0 0 0 0 0 0 0 0 0 0 0 0 0 0 0 0 0
0 0 0 0 0 0 0 0 0 0 0 0 0 0 0 0 0 0 0 0 0 0 0 0 0 0 0 0 0 0 0 0 0 0 0 0 0 0
0 0 0 0 0 0 0 0 0 0 0 0 0 0 0 0 0 0 0 0 0 0 0 0 0 0 0 0 0 0 0 0 0 0 0 0 0 0
0 0 0 0 0 0 0 0 0 0 0 0 0 0 0 0 0 0 0 0 0 0 0 0 0 0 0 0 0 0 0 0 0 0 0 0 0 0
0 0 0 0 0 0 0 0 0 0 0 0 0 0 0 0 0 0 0 0 0 0 0 0 0 0 0 0 0 0 0 0 0 0 0 0 0 0
0 0 0 0 0 0 0 0 0 0 0 0 0 0 0 0 0 0 0 0 0 0 0 0 0 0 0 0 0 0 0 0 0 0 0 0 0 0
0 0 0 0 0 0 0 0 0 0 0 0 0 0 0 0 0 0 0 0 0 0 0 0 0 0 0 0 0 0 0 0 0 0 0 0 0 0
Wind_Speed
3 3 2 2 1 1 2 3 4 3 3 3 2 2 2 2 3 2 2 4 5 4 4 4 4 4 3 3 4 4 5 5 5 6 5 6 7 7
3 3 3 2 2 2 2 1 2 3 3 2 3 2 2 2 3 2 3 4 5 5 5 5 5 4 4 4 4 5 5 5 6 6 6 7 7 8
3 4 4 3 3 2 2 2 2 2 3 2 1 1 2 2 2 2 2 2 3 6 6 6 6 5 5 5 5 5 5 5 6 7 7 7 7 8
5 4 4 3 4 3 3 3 3 3 3 3 2 2 3 3 2 2 2 2 2 5 7 7 6 6 6 6 5 5 5 5 6 7 7 8 8 8
6 6 5 5 4 4 4 4 3 2 2 3 3 2 1 1 2 2 2 2 3 4 6 6 6 6 6 6 6 6 6 6 6 7 7 8 8 8
5 5 5 6 6 6 5 5 4 3 3 3 3 2 2 2 2 2 2 2 3 3 4 5 6 7 7 7 6 6 6 6 7 7 7 8 8 9
5 5 6 7 7 6 5 5 5 4 4 3 3 2 3 2 3 2 3 2 2 2 2 3 3 3 4 6 6 6 7 7 7 7 8 8 8 8
6 5 6 7 8 9 9 9 8 7 6 5 4 5 5 4 3 3 2 2 3 2 2 3 2 3 3 3 6 7 7 7 7 7 7 7 8 8
6 6 5 6 7 6 7 9 9 11 10 7 6 7 6 5 5 4 4 4 4 2 2 4 3 4 3 4 7 8 7 7 6 7 7 8 8 8
6 7 7 6 7 6 5 6 6 6 7 6 6 6 5 5 6 5 5 3 2 2 2 3 3 3 3 3 7 7 7 6 6 7 7 7 7 7
6 6 7 7 10 10 6 6 6 5 6 8 8 7 8 8 6 3 3 3 3 3 2 2 2 2 2 3 4 6 6 6 6 7 7 7 7 6
4 5 9 9 10 10 7 7 7 6 4 4 4 5 5 6 8 6 5 4 3 3 3 2 2 1 2 2 2 2 3 5 7 7 7 7 6 3
4 4 5 9 10 11 9 7 8 5 4 4 3 2 2 3 3 3 3 4 4 4 3 3 2 2 2 3 2 2 2 2 3 4 6 7 6 4
4 4 4 8 9 10 8 8 8 5 3 3 3 3 3 3 3 2 2 3 3 3 3 3 2 3 3 3 3 2 2 2 2 2 2 5 6 7
4 6 6 7 7 6 7 7 5 3 3 3 4 4 3 3 2 2 1 2 1 1 1 2 2 2 3 3 3 2 2 2 2 2 2 2 3 3
3 4 5 5 4 2 2 2 2 3 3 3 3 3 2 2 3 3 2 2 1 1 1 1 2 3 3 3 3 3 2 2 2 2 3 3 3 3
2 2 2 1 2 1 1 1 1 2 2 2 2 2 2 3 2 2 2 2 2 2 1 0 0 1 2 3 3 3 3 2 2 2 2 3 3 3
2 2 2 3 3 3 2 2 2 2 2 2 2 2 2 3 2 2 2 2 2 2 2 1 1 0 1 2 4 4 3 3 2 2 2 2 4 3
2 2 3 3 3 3 3 3 2 2 2 2 2 2 2 2 2 2 2 2 2 2 2 2 2 2 2 3 3 3 3 2 1 2 2 2 4 4
2 3 3 3 3 3 3 3 2 2 2 2 2 2 2 2 2 2 2 3 2 2 1 1 2 2 4 3 2 2 3 2 2 2 2 2 3 5
2 2 3 3 3 3 3 3 3 3 3 2 2 2 2 2 2 2 2 4 3 2 2 2 2 2 0 1 0 2 2 3 3 2 2 2 2 2
1 2 2 2 2 3 3 2 2 2 3 3 3 2 2 2 3 3 3 3 3 2 2 1 0 0 1 2 2 2 2 2 3 4 3 3 2 3
1 1 1 1 2 2 2 3 3 2 2 2 2 2 2 2 2 2 2 2 2 2 2 1 0 0 1 1 1 1 1 2 2 2 2 4 5 6
Wind_Direction
192 194 202 210 189 183 172 176 170 192 232 225 223 223 224 212 228 222 230 256 265 262 263 274 279 279 281 288 291 289 291 296 286 277 280 284 282 284
189 185 197 210 203 194 192 202 211 188 216 215 217 223 218 236 236 227 235 255 261 267 262 264 271 271 272 272 276 278 281 283 284 276 274 278 283 282
197 196 207 204 196 195 188 190 209 196 221 249 237 221 202 219 244 245 243 239 254 265 266 262 262 264 263 268 271 274 274 274 276 281 279 277 279 282
206 204 211 205 202 198 195 201 207 209 204 232 245 225 224 214 218 240 256 252 249 262 267 263 259 261 265 271 271 269 269 271 271 274 279 278 277 279
207 206 208 201 212 208 204 204 207 214 209 211 230 232 244 218 215 249 254 259 262 263 264 261 257 260 264 267 269 266 263 268 272 276 277 280 278 277
213 212 209 206 210 207 209 207 203 204 203 209 220 221 231 228 204 223 254 248 261 275 261 263 265 265 263 264 263 259 259 265 270 274 277 278 276 275
215 216 218 222 226 220 217 204 199 204 203 211 221 220 219 212 219 217 233 251 266 252 254 265 268 262 258 260 259 256 259 261 264 268 274 279 278 275
218 222 226 228 233 234 235 226 214 208 208 211 220 225 225 219 212 216 225 241 262 229 230 264 251 252 251 247 254 258 258 258 262 267 269 276 282 275
219 221 229 231 233 224 231 233 230 230 224 216 219 224 223 213 204 212 220 232 245 228 221 258 243 251 250 252 258 259 257 259 264 268 272 273 276 278
222 221 223 226 225 220 222 227 230 233 232 226 222 224 223 212 206 210 213 238 275 245 210 248 247 251 259 253 258 256 252 259 270 272 275 276 276 276
225 223 222 222 230 229 223 223 231 240 245 237 235 236 232 226 209 179 191 209 252 247 211 228 246 266 269 255 251 252 257 263 270 273 275 276 278 274
229 228 233 232 231 228 218 214 224 229 219 228 232 238 233 224 220 208 200 210 232 240 207 207 226 229 273 264 247 257 259 264 268 275 278 276 277 268
230 231 234 239 237 234 228 219 228 224 204 203 209 216 217 211 210 209 207 211 220 235 208 191 213 222 234 266 273 260 255 260 266 272 277 281 283 276
231 231 233 239 237 236 234 227 229 221 188 189 206 219 220 216 211 205 210 220 226 230 213 201 210 212 220 245 261 271 263 255 260 272 274 281 282 286
228 234 237 241 242 238 237 227 215 194 183 197 211 224 221 205 181 180 188 192 208 226 215 217 208 213 223 233 245 252 266 268 255 260 271 270 270 274
224 232 240 250 252 246 234 221 200 192 194 204 206 210 196 183 189 194 200 190 206 249 236 210 209 210 226 236 235 244 237 245 251 258 265 269 267 258
204 198 194 197 202 197 207 202 175 182 200 197 197 199 194 188 194 190 186 188 210 226 244 262 221 228 238 228 236 238 235 242 246 251 254 266 265 259
209 192 203 204 199 201 204 206 198 195 196 192 196 202 206 200 196 185 182 191 199 213 224 226 204 251 318 289 245 238 235 240 248 244 230 249 274 275
207 201 211 207 200 199 201 200 200 200 193 193 195 199 201 198 192 190 190 193 202 214 226 226 220 201 222 262 271 243 231 238 245 245 239 236 258 276
211 208 211 203 197 199 199 197 193 190 193 197 194 198 201 194 193 197 195 196 202 208 222 231 229 223 223 235 246 276 266 234 223 239 253 259 270 286
223 217 209 199 196 195 193 190 190 196 197 196 198 200 197 187 198 202 200 204 204 201 216 238 249 266 249 101 273 290 293 281 267 247 235 256 284 287
232 215 210 200 192 189 187 185 187 196 198 200 200 199 197 190 196 201 202 200 207 207 222 248 275 209 164 191 225 252 287 310 308 304 284 263 248 245
240 223 208 197 191 184 184 185 189 199 203 201 200 195 188 191 195 196 200 199 194 196 196 202 229 152 212 212 221 235 257 288 313 331 317 303 293 286